Location: Eagle Observatory
(42.5300°N, 88.2800°W)
Time: 18:05:43
(UTC-05:00)

HST - Visible Passes

Search period start: 22 October 2014 00:00
Search period end: 01 November 2014 00:00
Orbit: 546 x 550 km, 28.5° (Epoch: 22 October)

Date Brightness Start Highest point End Pass type
(mag) Time Alt. Az. Time Alt. Az. Time Alt. Az.
27 Oct 3.3 19:35:59 10° S 19:36:36 10° S 19:37:03 10° SSE visible
28 Oct 3.2 19:27:55 10° SSW 19:29:08 11° S 19:30:10 10° SSE visible
29 Oct 3.2 19:20:12 10° SSW 19:21:40 12° S 19:23:07 10° SSE visible
30 Oct 3.3 19:12:40 10° SSW 19:14:11 12° S 19:15:42 10° SSE visible
31 Oct 3.3 19:05:16 10° SSW 19:06:42 12° S 19:08:07 10° SSE visible
